Location: Newark
(7.1028°S, 35.3258°W)
Time: 03:43:30
(UTC+00:00)

Vanguard 3 - Pass Details

Date: 03 March 2020
Orbit: 508 x 3263 km, 33.4° (Epoch: 04 April)

Event Time Altitude Azimuth Distance (km) Brightness Sun altitude
Rises 01:24:02 0° 231° (SW) 7,062 12.3 -67.9°
Reaches altitude 10° 01:30:02 10° 222° (SW) 5,772 11.6 -69.0°
Enters shadow 01:36:51 23° 205° (SSW) 4,323 10.8 -70.3°
